When you browse on this site, cookies collect data to enhance your experience and personalize the content and advertising you see.
Visit our Privacy Policy to learn more. By continuing to use the site, you agree to this use of cookies and data.
  • In United Kingdom
  • List of Countries
  • For 7 days
  • Water Temperature
  • Weather Map
  • Weather Widgets
  • user-avatar
    Login

    Hourly Weather Primorsko

    Today, 26 February, Wednesday

    Time Temperature Precipitation Wind Pressure Humidity
    00:00 +8°C° 0 mm 4 mps 757 mmHg 59%
    01:00 +10°C° 0 mm 4 mps 756 mmHg 60%
    02:00 +9°C° 0 mm 5 mps 756 mmHg 61%
    03:00 +9°C° 0 mm 5 mps 755 mmHg 61%
    04:00 +9°C° 0 mm 5 mps 755 mmHg 61%
    05:00 +9°C° 0 mm 6 mps 754 mmHg 61%
    06:00 +9°C° 0 mm 5 mps 754 mmHg 64%
    07:00 +10°C° 0 mm 5 mps 754 mmHg 67%
    08:00 +10°C° 0 mm 5 mps 754 mmHg 70%
    09:00 +12°C° 0 mm 5 mps 754 mmHg 67%
    10:00 +14°C° 0 mm 6 mps 753 mmHg 65%
    11:00 +15°C° 0 mm 6 mps 753 mmHg 63%
    12:00 +16°C° 0 mm 6 mps 753 mmHg 63%
    13:00 +17°C° 0 mm 7 mps 752 mmHg 63%
    14:00 +17°C° 0 mm 7 mps 752 mmHg 62%
    15:00 +17°C° 0 mm 7 mps 751 mmHg 64%
    16:00 +16°C° 0 mm 7 mps 751 mmHg 66%
    17:00 +16°C° 0 mm 7 mps 750 mmHg 67%
    18:00 +15°C° 0 mm 8 mps 750 mmHg 69%
    19:00 +15°C° 0 mm 9 mps 750 mmHg 70%
    20:00 +13°C° 0 mm 9 mps 750 mmHg 72%
    21:00 +13°C° 0 mm 10 mps 750 mmHg 73%
    22:00 +13°C° 0 mm 10 mps 750 mmHg 73%
    23:00 +13°C° 0 mm 10 mps 750 mmHg 74%

    Tomorrow, 27 February, Thursday

    Time Temperature Precipitation Wind Pressure Humidity
    00:00 +13°C° 0 mm 10 mps 750 mmHg 75%
    01:00 +13°C° 0 mm 10 mps 750 mmHg 76%
    02:00 +13°C° 0 mm 9 mps 750 mmHg 77%
    03:00 +13°C° 0 mm 9 mps 750 mmHg 76%
    04:00 +13°C° 0 mm 9 mps 750 mmHg 75%
    05:00 +13°C° 0 mm 9 mps 750 mmHg 75%
    06:00 +13°C° 0 mm 9 mps 750 mmHg 74%
    07:00 +13°C° 0 mm 9 mps 750 mmHg 74%
    08:00 +13°C° 0 mm 9 mps 750 mmHg 74%
    09:00 +15°C° 0.1 mm 9 mps 750 mmHg 68%
    10:00 +16°C° 0.1 mm 9 mps 750 mmHg 62%
    11:00 +16°C° 0.1 mm 9 mps 750 mmHg 56%
    12:00 +16°C° 0.1 mm 9 mps 750 mmHg 54%
    13:00 +16°C° 0.1 mm 9 mps 750 mmHg 52%
    14:00 +16°C° 0.1 mm 9 mps 750 mmHg 50%
    15:00 +15°C° 0 mm 7 mps 750 mmHg 52%
    16:00 +14°C° 0 mm 5 mps 750 mmHg 55%
    17:00 +13°C° 0 mm 2 mps 751 mmHg 57%
    18:00 +11°C° 0.1 mm 3 mps 751 mmHg 60%
    19:00 +10°C° 0.1 mm 4 mps 752 mmHg 62%
    20:00 +7°C° 0.1 mm 6 mps 753 mmHg 64%
    21:00 +7°C° 0 mm 6 mps 754 mmHg 63%
    22:00 +5°C° 0 mm 7 mps 754 mmHg 62%
    23:00 +5°C° 0 mm 8 mps 755 mmHg 61%

    Day after tomorrow, 28 February, Friday

    Time Temperature Precipitation Wind Pressure Humidity
    00:00 +4°C° 0 mm 7 mps 756 mmHg 64%
    01:00 +5°C° 0 mm 5 mps 757 mmHg 66%
    02:00 +4°C° 0 mm 4 mps 757 mmHg 69%
    03:00 +4°C° 0 mm 4 mps 758 mmHg 69%
    04:00 +4°C° 0 mm 4 mps 758 mmHg 69%
    05:00 +3°C° 0 mm 4 mps 758 mmHg 69%
    06:00 +4°C° 0 mm 4 mps 758 mmHg 68%
    07:00 +4°C° 0 mm 3 mps 759 mmHg 66%
    08:00 +4°C° 0 mm 3 mps 759 mmHg 64%
    09:00 +7°C° 0 mm 3 mps 759 mmHg 56%
    10:00 +8°C° 0 mm 3 mps 759 mmHg 48%
    11:00 +10°C° 0 mm 3 mps 759 mmHg 40%
    12:00 +10°C° 0 mm 4 mps 758 mmHg 41%
    13:00 +11°C° 0 mm 4 mps 758 mmHg 42%
    14:00 +10°C° 0 mm 5 mps 757 mmHg 43%
    15:00 +10°C° 0 mm 5 mps 757 mmHg 46%
    16:00 +11°C° 0 mm 4 mps 757 mmHg 49%
    17:00 +11°C° 0 mm 3 mps 756 mmHg 52%
    18:00 +10°C° 0 mm 4 mps 757 mmHg 56%
    19:00 +8°C° 0 mm 4 mps 758 mmHg 59%
    20:00 +7°C° 0 mm 5 mps 758 mmHg 63%
    21:00 +7°C° 0.1 mm 5 mps 758 mmHg 66%
    22:00 +6°C° 0.1 mm 5 mps 759 mmHg 69%
    23:00 +6°C° 0.1 mm 5 mps 759 mmHg 72%

    29 February, Saturday

    Time Temperature Precipitation Wind Pressure Humidity
    00:00 +6°C° 0 mm 5 mps 759 mmHg 68%
    01:00 +4°C° 0 mm 6 mps 759 mmHg 64%
    02:00 +4°C° 0 mm 7 mps 760 mmHg 60%
    03:00 +3°C° 0 mm 7 mps 760 mmHg 60%
    04:00 +3°C° 0 mm 7 mps 760 mmHg 59%
    05:00 +1°C° 0 mm 8 mps 761 mmHg 59%
    06:00 +3°C° 0 mm 7 mps 761 mmHg 59%
    07:00 +3°C° 0 mm 7 mps 762 mmHg 59%
    08:00 +3°C° 0 mm 6 mps 762 mmHg 60%
    09:00 +4°C° 0 mm 6 mps 762 mmHg 54%
    10:00 +7°C° 0 mm 6 mps 763 mmHg 49%
    11:00 +8°C° 0 mm 5 mps 763 mmHg 44%
    12:00 +9°C° 0 mm 5 mps 763 mmHg 41%
    13:00 +10°C° 0 mm 4 mps 763 mmHg 39%
    14:00 +11°C° 0 mm 3 mps 762 mmHg 36%
    15:00 +11°C° 0 mm 3 mps 762 mmHg 38%
    16:00 +12°C° 0 mm 2 mps 762 mmHg 40%
    17:00 +11°C° 0 mm 1 mps 762 mmHg 42%
    18:00 +9°C° 0 mm 2 mps 763 mmHg 46%
    19:00 +8°C° 0 mm 3 mps 763 mmHg 50%
    20:00 +5°C° 0 mm 4 mps 763 mmHg 54%
    21:00 +5°C° 0 mm 4 mps 763 mmHg 56%
    22:00 +5°C° 0 mm 4 mps 763 mmHg 59%
    23:00 +5°C° 0 mm 4 mps 763 mmHg 62%

    1 March, Sunday

    Time Temperature Precipitation Wind Pressure Humidity
    00:00 +5°C° 0 mm 4 mps 763 mmHg 61%
    01:00 +5°C° 0 mm 4 mps 763 mmHg 59%
    02:00 +5°C° 0 mm 4 mps 762 mmHg 57%
    03:00 +5°C° 0 mm 3 mps 762 mmHg 57%
    04:00 +5°C° 0 mm 3 mps 762 mmHg 57%
    05:00 +5°C° 0 mm 3 mps 761 mmHg 57%
    06:00 +5°C° 0 mm 3 mps 761 mmHg 58%
    07:00 +7°C° 0 mm 3 mps 761 mmHg 60%
    08:00 +7°C° 0 mm 3 mps 761 mmHg 61%
    09:00 +8°C° 0 mm 4 mps 761 mmHg 60%
    10:00 +10°C° 0 mm 5 mps 761 mmHg 58%
    11:00 +13°C° 0 mm 5 mps 761 mmHg 57%
    12:00 +13°C° 0 mm 6 mps 760 mmHg 58%
    13:00 +14°C° 0 mm 6 mps 760 mmHg 58%
    14:00 +15°C° 0 mm 6 mps 759 mmHg 59%
    15:00 +14°C° 0 mm 6 mps 759 mmHg 62%
    16:00 +14°C° 0 mm 6 mps 758 mmHg 66%
    17:00 +14°C° 0 mm 5 mps 758 mmHg 69%
    18:00 +13°C° 0 mm 5 mps 758 mmHg 74%
    19:00 +12°C° 0 mm 5 mps 758 mmHg 78%
    20:00 +12°C° 0 mm 5 mps 758 mmHg 83%
    21:00 +12°C° 0 mm 5 mps 758 mmHg 82%
    22:00 +12°C° 0 mm 5 mps 758 mmHg 82%
    23:00 +12°C° 0 mm 5 mps 758 mmHg 81%

    2 March, Monday

    Time Temperature Precipitation Wind Pressure Humidity
    00:00 +12°C° 0 mm 5 mps 757 mmHg 81%
    01:00 +11°C° 0 mm 6 mps 757 mmHg 81%
    02:00 +11°C° 0 mm 6 mps 757 mmHg 81%
    03:00 +11°C° 0 mm 6 mps 756 mmHg 81%
    04:00 +13°C° 0 mm 5 mps 756 mmHg 81%
    05:00 +13°C° 0 mm 5 mps 756 mmHg 81%
    06:00 +13°C° 0 mm 5 mps 756 mmHg 81%
    07:00 +13°C° 0 mm 4 mps 756 mmHg 81%
    08:00 +13°C° 0 mm 4 mps 756 mmHg 82%
    09:00 +14°C° 0 mm 4 mps 756 mmHg 77%
    10:00 +15°C° 0 mm 4 mps 756 mmHg 73%
    11:00 +17°C° 0 mm 4 mps 757 mmHg 69%
    12:00 +18°C° 0.1 mm 4 mps 756 mmHg 66%
    13:00 +18°C° 0.1 mm 4 mps 756 mmHg 63%
    14:00 +19°C° 0.1 mm 4 mps 755 mmHg 60%
    15:00 +18°C° 0.4 mm 4 mps 755 mmHg 62%
    16:00 +18°C° 0.4 mm 4 mps 755 mmHg 64%
    17:00 +17°C° 0.4 mm 4 mps 755 mmHg 65%
    18:00 +15°C° 0 mm 4 mps 756 mmHg 70%
    19:00 +14°C° 0 mm 4 mps 756 mmHg 74%
    20:00 +13°C° 0 mm 4 mps 756 mmHg 78%
    21:00 +13°C° 0 mm 4 mps 756 mmHg 79%
    22:00 +12°C° 0 mm 4 mps 757 mmHg 80%
    23:00 +12°C° 0 mm 4 mps 757 mmHg 81%
    Show more